Satellite-Ground Cal/Val Region Overpasses Predictions

Prediction of Satellite NPP Overpassing Cal/Val Region: PacNW

Region Location: (Latitude: 10.00, Longitude: 139.50) to (Latitude: 22.70, Longitude: 165.60).

Table of predicted overpasses for the next 14.0 days since TLE Epoch: 3/18/2023
Interval Starting Time Starting Location Ending Time Ending Location
1 03/18/2023 02:16:48 ( 13.00, 165.59) 03/18/2023 02:19:33 ( 22.69, 163.26)
2 03/18/2023 03:57:27 ( 10.01, 140.91) 03/18/2023 03:59:09 ( 16.00, 139.51)
3 03/18/2023 14:47:51 ( 22.69, 163.53) 03/18/2023 14:51:27 ( 10.02, 160.51)
4 03/19/2023 03:38:27 ( 10.01, 145.66) 03/19/2023 03:42:03 ( 22.69, 142.64)
5 03/19/2023 14:32:02 ( 11.42, 165.59) 03/19/2023 14:32:26 ( 10.01, 165.26)
6 03/19/2023 16:10:20 ( 22.69, 142.91) 03/19/2023 16:13:56 ( 10.01, 139.89)
7 03/20/2023 03:19:26 ( 10.01, 150.42) 03/20/2023 03:23:02 ( 22.69, 147.39)
8 03/20/2023 15:51:20 ( 22.69, 147.67) 03/20/2023 15:54:56 ( 10.01, 144.64)
9 03/21/2023 03:00:26 ( 10.02, 155.17) 03/21/2023 03:04:02 ( 22.70, 152.15)
10 03/21/2023 15:32:19 ( 22.68, 152.42) 03/21/2023 15:35:55 ( 10.00, 149.40)
11 03/22/2023 02:41:25 ( 10.03, 159.92) 03/22/2023 02:45:00 ( 22.65, 156.91)
12 03/22/2023 15:13:19 ( 22.67, 157.18) 03/22/2023 15:16:54 ( 10.05, 154.17)
13 03/23/2023 02:22:25 ( 10.03, 164.68) 03/23/2023 02:26:00 ( 22.65, 161.67)
14 03/23/2023 14:54:18 ( 22.66, 161.93) 03/23/2023 14:57:53 ( 10.04, 158.92)
15 03/24/2023 03:44:54 ( 10.05, 144.06) 03/24/2023 03:48:29 ( 22.67, 141.05)
16 03/24/2023 14:36:34 ( 18.19, 165.59) 03/24/2023 14:38:53 ( 10.03, 163.67)
17 03/24/2023 16:16:48 ( 22.65, 141.31) 03/24/2023 16:18:54 ( 15.26, 139.51)
18 03/25/2023 03:25:54 ( 10.06, 148.81) 03/25/2023 03:29:29 ( 22.68, 145.80)
19 03/25/2023 15:57:46 ( 22.69, 146.08) 03/25/2023 16:01:22 ( 10.02, 143.05)
20 03/26/2023 03:06:52 ( 10.01, 153.58) 03/26/2023 03:10:28 ( 22.69, 150.55)
21 03/26/2023 15:38:46 ( 22.68, 150.83) 03/26/2023 15:42:22 ( 10.00, 147.81)
22 03/27/2023 02:47:52 ( 10.03, 158.33) 03/27/2023 02:51:27 ( 22.65, 155.32)
23 03/27/2023 15:19:46 ( 22.66, 155.58) 03/27/2023 15:23:21 ( 10.04, 152.57)
24 03/28/2023 02:28:51 ( 10.05, 163.08) 03/28/2023 02:32:26 ( 22.67, 160.07)
25 03/28/2023 15:00:45 ( 22.64, 160.33) 03/28/2023 15:04:20 ( 10.02, 157.32)
26 03/29/2023 02:12:33 ( 19.58, 165.59) 03/29/2023 02:13:26 ( 22.69, 164.82)
27 03/29/2023 03:51:20 ( 10.01, 142.47) 03/29/2023 03:54:52 ( 22.45, 139.51)
28 03/29/2023 14:41:44 ( 22.68, 165.10) 03/29/2023 14:45:20 ( 10.00, 162.08)
29 03/29/2023 16:23:14 ( 22.68, 139.73) 03/29/2023 16:23:29 ( 21.80, 139.50)
30 03/30/2023 03:32:19 ( 10.03, 147.23) 03/30/2023 03:35:54 ( 22.65, 144.22)
31 03/30/2023 16:04:13 ( 22.66, 144.48) 03/30/2023 16:07:48 ( 10.04, 141.47)
32 03/31/2023 03:13:19 ( 10.05, 151.98) 03/31/2023 03:16:54 ( 22.67, 148.97)
